Mason City, IA

5:18 PM CDT on July 24, 2017 (GMT -0500)
Mason City Municipal

Weather History for KMCW - October, 2014

Change the Weather History Date:

Friday, October 17, 2014

  Actual Average Record
Temperature  
Mean Temperature 47 °F 48 °F  
Max Temperature 54 °F 60 °F 85 °F (1947)
Min Temperature 40 °F 36 °F 18 °F (1976)
Degree Days  
Heating Degree Days 18 17  
Month to date heating degree days 280 243  
Since 1 July heating degree days 475 456  
Cooling Degree Days 0 0  
Month to date cooling degree days 0 2  
Year to date cooling degree days 544 612  
Moisture  
Dew Point 42 °F    
Average Humidity 80    
Maximum Humidity 89    
Minimum Humidity 71    
Precipitation  
Precipitation 0.00 in 0.08 in 1.23 in (1994)
Month to date precipitation 1.79 1.46  
Year to date precipitation 33.03 31.09  
Snow  
Snow 0.00 in 0.00 in 0.30 in (1990)
Month to date snowfall 0.0 0.1  
Since 1 July snowfall 0.0 0.1  
Since 1 September snowfall 0.0 0.1  
Snow Depth 0.00 in    
Sea Level Pressure  
Sea Level Pressure 29.87 in    
Wind  
Wind Speed 19 mph (NW)    
Max Wind Speed 30 mph    
Max Gust Speed 40 mph    
Visibility 10 miles    
Events      
T = Trace of Precipitation, MM = Missing Value Source: NWS Daily Summary

Daily Weather History Graph

Daily Weather History Graph

Search for Another Location

Airport or City:

Trip Planner

Search our weather history database for the weather conditions in past years. The results will help you decide how hot, cold, wet, or windy it might be!

Date:

Astronomy

Oct. 17, 2014 Rise Set
Actual Time 7:29 AM CDT 6:27 PM CDT
Civil Twilight 7:00 AM CDT 6:55 PM CDT
Nautical Twilight 6:27 AM CDT 7:28 PM CDT
Astronomical Twilight 5:54 AM CDT 8:01 PM CDT
Moon 1:25 AM CDT (10/17) 3:22 PM CDT (10/17)
Length of Visible Light 11h 55m
Length of Day
10h 57m
Waning Crescent, 32% of the Moon is Illuminated
Oct 17
Waning Crescent
Oct 23
New
Oct 30
First Quarter
Nov 6
Full
Nov 14
Last Quarter

Hourly Weather History & Observations

Time (CDT) Temp. Windchill Dew Point Humidity Pressure Visibility Wind Dir Wind Speed Gust Speed Precip Events Conditions
12:20 AM - - - N/A% - - West 9.2 mph - N/A   Mostly Cloudy
12:53 AM 46.9 °F - 41.0 °F 80% 29.67 in 10.0 mi West 10.4 mph - N/A   Clear
1:53 AM 46.9 °F - 42.1 °F 83% 29.67 in 10.0 mi West 9.2 mph - N/A   Clear
2:53 AM 50.0 °F - 45.0 °F 83% 29.67 in 10.0 mi WNW 12.7 mph - N/A   Mostly Cloudy
3:53 AM 52.0 °F - 44.1 °F 74% 29.68 in 10.0 mi WNW 19.6 mph 27.6 mph N/A   Scattered Clouds
4:53 AM 53.1 °F - 44.1 °F 71% 29.68 in 10.0 mi WNW 18.4 mph 25.3 mph N/A   Overcast
5:53 AM 52.0 °F - 44.1 °F 74% 29.70 in 10.0 mi WNW 18.4 mph 25.3 mph N/A   Overcast
6:09 AM 52.0 °F - 44.1 °F 74% 29.72 in 10.0 mi WNW 17.3 mph - N/A   Overcast
6:53 AM 52.0 °F - 43.0 °F 71% 29.72 in 10.0 mi NW 21.9 mph 33.4 mph N/A   Overcast
7:53 AM 51.1 °F - 43.0 °F 74% 29.75 in 10.0 mi WNW 20.7 mph 27.6 mph N/A   Overcast
8:53 AM 51.1 °F - 43.0 °F 74% 29.77 in 10.0 mi WNW 24.2 mph 33.4 mph N/A   Overcast
9:53 AM 51.1 °F - 43.0 °F 74% 29.79 in 10.0 mi NW 21.9 mph 35.7 mph N/A   Overcast
10:53 AM 51.1 °F - 42.1 °F 71% 29.82 in 10.0 mi NW 28.8 mph 40.3 mph N/A   Overcast
11:53 AM 50.0 °F - 42.1 °F 74% 29.85 in 10.0 mi NW 25.3 mph 31.1 mph N/A   Overcast
12:53 PM 51.1 °F - 42.1 °F 71% 29.86 in 10.0 mi NW 24.2 mph 31.1 mph N/A   Overcast
1:53 PM 51.1 °F - 43.0 °F 74% 29.88 in 10.0 mi NW 23.0 mph 28.8 mph N/A   Overcast
2:53 PM 50.0 °F - 42.1 °F 74% 29.90 in 10.0 mi NW 18.4 mph 31.1 mph N/A   Overcast
3:53 PM 50.0 °F - 42.1 °F 74% 29.92 in 10.0 mi NW 26.5 mph 31.1 mph N/A   Overcast
4:29 PM 51.8 °F - 42.8 °F 71% 29.93 in 10.0 mi WNW 20.7 mph - N/A   Mostly Cloudy
4:53 PM 51.1 °F - 42.1 °F 71% 29.94 in 10.0 mi WNW 24.2 mph - N/A   Mostly Cloudy
5:21 PM 51.1 °F - 42.1 °F 71% 29.96 in 10.0 mi NW 19.6 mph 29.9 mph N/A   Overcast
5:53 PM 50.0 °F - 42.1 °F 74% 29.96 in 10.0 mi NW 15.0 mph - N/A   Overcast
6:53 PM 50.0 °F - 42.1 °F 74% 29.98 in 10.0 mi NW 16.1 mph 27.6 mph N/A   Overcast
7:17 PM 50.0 °F - 42.1 °F 74% 29.99 in 10.0 mi NW 17.3 mph - N/A   Overcast
7:51 PM 48.2 °F - 42.8 °F 82% 30.01 in 10.0 mi NW 15.0 mph 23.0 mph N/A   Overcast
7:53 PM 48.9 °F - 42.1 °F 77% 30.01 in 10.0 mi NW 16.1 mph 23.0 mph N/A   Overcast
8:10 PM 48.9 °F - 42.1 °F 77% 30.02 in 10.0 mi NW 21.9 mph 26.5 mph N/A   Overcast
8:53 PM 48.9 °F - 41.0 °F 74% 30.03 in 10.0 mi NW 16.1 mph - N/A   Overcast
9:53 PM 48.0 °F - 41.0 °F 77% 30.06 in 10.0 mi NW 16.1 mph - N/A   Overcast
10:53 PM 44.1 °F 37.4 °F 39.9 °F 85% 30.09 in 10.0 mi NW 13.8 mph - N/A   Partly Cloudy
11:53 PM 42.1 °F 35.2 °F 39.0 °F 89% 30.10 in 10.0 mi NW 12.7 mph - N/A   Clear